OPS 4682 DEB, 38379

Orbit data source: Space-Track

OPS 4682 DEB, 38379 is space debris in LEO originally from a launch on Sat, 03 Apr 1965 UTC launched from the Air Force Western Test Range (AFWTR). Debris objects in space refer to the collection of defunct objects orbiting the Earth. Examples of debris include non-operational satellites, rocket bodies, and fragments generated from explosions, collisions, or faulty payload assembly.

Loading next visibility...
Identifier
38379, 1965-027CG
Orbit
LEO
Country
Flag of USUS
Related business
Manufacturer
Unknown
Mission
Spacecraft
Bus & Motor
Unknown
Mass
Unknown
Launch date (UTC)
1965-04-03 (61 years ago)
Launch vehicle
Unknown
Launch site
Air Force Western Test Range (AFWTR)
Object type
Payload
Rocket body
Debris
Shape & HBR
Unknown shape, 0.1 m
Radar Cross Section
Medium (>0.1 m² and <1 m²)

Expand to show TLE details & history
Last TLE update: 3 days ago

TLE from 3 days ago
0 OPS 4682 DEB
1 38379U 65027CG  26205.67795068  .00000568  00000-0  18434-2 0  9994
2 38379  90.2382   4.8664 0028961 135.8060 224.5383 13.00546184637334
Epoch: 2026-07-24T16:16Z
TLE epoch observation values (Epoch: 2026-07-24T16:16:14.938Z)
Latitude
-0.00003°
Longitude
178.40302°
Altitude
1,278.634 km
Speed
7.209 km/s
True Right ascension
00h 19m 27s
True Declination
0° 00' 00"
Sunlit
Object was in daylight at epoch
Visualization orbit readout
Latitude
Unknown
Longitude
Unknown
Altitude
Unknown
Speed
Unknown
Apparent Right ascension
Unknown
Apparent Declination
Unknown
Sunlit
N/A
Visualization observer readout
Local Sidereal Time
13:04:52
Azimuth
Unknown
Elevation
Unknown
Doppler factor
Unknown
Orbital elements
Apogee altitude
1,279.186 km
Perigee altitude
1,234.961 km
Semi-major axis
7,635.211 km
Eccentricity
0.0029
Inclination
90.2382°
RAAN
4.8664°
Arg. of periapsis
135.806°
True anomaly
224.30613°
Mean anomaly
224.5383°
Eccentric anomaly
224.42216°
Mean motion
3.25321 °/min
Orbital period
110.66 mins
BSTAR
0.0018434
Loading maneuver chart data...
Computing Atmospheric mass density...
Loading historical data...
Loading historical data...
Loading historical data...
Loading historical data...
Loading historical data...
Loading historical data...
Loading historical data...

Documentation

Showing up to 5 results
|